Location: Newark
(9.4667°S, 159.8167°E)
Time: 20:48:12
(UTC+00:00)

Vanguard 1 - Pass Details

Date: 18 November 2019
Orbit: 651 x 3832 km, 34.3° (Epoch: 11 December)

Event Time Altitude Azimuth Distance (km) Brightness Sun altitude
Rises 10:25:38 0° 285° (WNW) 4,219 13.7 -41.2°
Reaches altitude 10° 10:28:03 10° 279° (W) 3,541 13.3 -41.7°
Maximum altitude 10:37:18 52° 205° (SSW) 2,532 12.1 -43.5°
Drops below altitude 10° 10:54:22 10° 132° (SE) 6,212 14.0 -46.7°
Sets 11:00:23 0° 127° (SE) 7,597 14.5 -47.8°
